Theta_e
352 351 351 350 350 350 349 349 351 353 352 353 355 355 354 354 354 354 355 355 356 356 356 355 354 355 355 354 354 354 353 355 356 357 357 357 357 357 358 359 358 357 356 356 354 354 355 354 351 348 348 349 350 351 350 350 350 350 350 351 352 352 352 352 352 351 351 349 348 347 346 346 346 346 347 348 350 351 352 350 349 346 345 346 350
353 353 353 353 352 351 350 348 349 351 352 352 354 355 355 355 355 355 356 356 356 357 357 356 356 355 355 355 355 354 354 354 355 356 357 356 355 355 355 356 357 357 356 356 354 354 355 355 354 351 348 349 351 351 351 350 349 349 350 350 351 352 352 353 352 351 351 351 350 350 349 348 348 348 350 350 349 348 347 346 343 340 340 346 351
355 355 354 354 354 353 352 351 351 351 351 351 353 354 355 355 355 355 356 356 356 356 357 357 357 356 356 356 355 354 354 354 355 356 356 356 355 353 352 353 355 355 356 356 354 354 355 355 355 353 351 351 352 352 352 351 350 349 350 350 349 350 351 352 352 352 352 352 351 351 350 349 349 349 350 352 351 350 349 347 344 343 343 348 353
356 356 356 355 354 354 354 354 354 353 353 351 351 353 354 355 355 355 356 356 356 356 356 356 357 356 356 356 355 355 355 355 355 356 356 357 356 355 353 352 353 353 355 357 356 356 356 356 355 354 353 353 354 355 354 352 350 350 351 351 349 348 349 350 351 351 351 351 351 351 351 350 350 350 351 351 351 350 351 350 348 346 346 348 352
356 357 357 357 356 356 355 355 355 355 354 352 351 352 353 354 354 355 354 355 355 355 355 355 354 355 356 355 355 354 355 355 355 356 356 356 356 356 355 353 353 352 353 354 356 358 358 357 356 355 354 354 354 356 356 354 352 351 352 353 352 351 350 350 350 350 350 351 350 350 351 351 351 351 351 351 351 351 351 349 347 346 346 346 349
355 356 358 358 358 358 357 356 356 355 354 354 353 352 353 354 354 354 353 354 354 354 354 353 352 353 355 355 354 354 354 355 355 355 356 356 355 356 356 355 354 353 352 353 354 356 357 357 357 356 355 355 354 355 356 355 355 354 354 354 354 354 354 352 351 351 350 351 351 351 352 351 351 351 351 351 352 352 351 348 344 344 346 346 343
352 354 356 356 357 357 358 358 357 356 356 356 355 354 354 354 355 354 353 353 354 354 353 353 352 352 353 353 353 354 354 354 355 354 355 355 355 355 356 356 356 355 354 354 354 355 355 355 357 357 356 356 355 355 355 355 355 356 355 355 354 355 355 354 353 352 352 352 352 353 352 351 352 352 351 352 353 353 352 351 348 343 344 346 344
351 352 353 354 354 355 356 357 356 356 356 356 356 356 355 355 355 354 355 354 354 354 353 353 352 352 351 352 352 353 353 354 354 354 354 354 354 354 355 356 356 355 355 355 354 355 354 355 356 357 357 357 356 356 355 355 355 355 355 355 355 355 355 355 354 353 353 353 354 354 353 353 353 352 351 352 352 352 351 352 353 349 346 347 347
350 351 352 352 352 352 352 353 353 353 354 354 354 355 354 354 354 353 353 353 352 352 352 352 353 351 351 351 351 352 352 353 353 353 353 354 353 354 354 354 355 355 354 354 354 354 355 355 356 355 356 356 356 356 356 356 356 356 356 356 355 355 355 355 355 354 354 353 354 354 354 354 353 352 352 350 350 350 350 352 354 353 352 353 349
351 351 351 351 351 351 350 350 351 351 353 353 353 353 353 353 353 352 351 349 349 349 350 350 351 351 351 351 351 352 352 352 351 352 352 352 353 353 353 353 354 353 354 353 353 354 354 355 355 355 356 356 356 356 357 357 357 356 356 356 356 356 355 355 355 354 354 354 354 354 353 354 353 352 352 350 350 351 352 354 355 354 355 356 352
352 352 352 351 351 351 350 350 351 351 352 352 353 353 353 353 352 352 351 350 348 348 348 349 350 350 350 350 350 350 351 351 350 350 351 351 352 353 353 353 353 353 353 353 353 353 354 355 355 355 355 355 355 356 356 356 355 354 354 354 355 356 356 355 355 355 354 354 354 353 353 353 353 352 352 352 352 353 353 354 355 356 356 356 355
351 351 351 351 351 350 350 350 350 350 350 351 352 352 351 350 350 350 350 349 348 347 347 348 348 349 349 349 348 348 349 349 350 350 350 351 351 352 352 352 353 353 353 353 352 353 353 354 355 355 355 355 355 355 355 354 353 352 352 352 352 353 354 354 355 355 355 355 354 353 353 353 353 352 352 352 352 352 353 354 355 355 355 355 355
344 346 347 347 348 349 350 350 350 351 351 351 350 350 348 349 349 348 349 349 348 348 348 348 348 348 347 347 347 347 348 349 349 350 351 351 351 352 353 353 353 353 352 352 352 352 352 353 353 352 352 353 354 355 355 354 353 352 350 350 350 350 351 350 351 351 353 354 354 354 354 353 354 353 352 353 353 353 354 354 354 355 355 355 356
340 340 340 340 340 342 344 346 346 348 349 349 350 349 349 350 349 349 350 350 349 350 350 350 351 350 349 347 347 347 348 349 350 350 350 350 351 352 353 353 353 353 352 352 352 351 351 351 351 351 350 350 350 351 352 353 353 352 351 350 349 348 348 347 346 346 348 350 352 352 351 351 352 351 350 352 354 354 354 354 354 355 355 354 355
338 339 340 339 339 338 339 340 341 342 344 347 348 347 346 347 348 349 349 349 350 350 350 351 352 352 352 351 349 348 348 349 350 351 351 351 351 351 351 351 352 352 352 352 352 352 351 351 352 352 352 351 350 349 350 350 351 352 353 351 350 349 348 347 345 345 344 345 346 347 346 346 347 347 346 348 351 351 352 354 354 354 354 353 353
334 335 335 336 337 339 339 339 338 339 340 343 343 342 341 340 341 342 343 343 345 347 347 347 347 347 349 351 352 352 352 351 351 351 352 353 352 352 351 351 351 351 352 352 352 352 352 353 353 353 353 353 352 352 351 351 351 352 352 352 351 350 349 348 347 346 345 345 345 345 345 345 346 346 345 346 347 348 351 353 353 352 352 351 351
330 331 331 330 331 335 338 339 338 339 339 340 340 340 340 339 338 338 338 338 340 342 343 343 344 344 345 348 350 351 352 353 353 353 354 354 354 353 352 352 352 351 351 351 352 352 353 353 354 354 354 354 352 353 353 353 353 352 352 351 351 350 349 348 348 348 347 346 346 346 346 346 346 347 347 346 347 348 350 351 351 351 350 349 349
327 328 329 329 329 330 335 338 340 341 342 342 342 341 342 342 342 342 342 342 342 342 342 342 342 342 343 345 349 350 351 352 353 354 355 355 355 355 355 353 353 352 352 351 351 351 351 351 352 352 352 352 351 352 353 353 353 352 352 351 351 350 350 349 348 347 346 346 346 346 347 347 347 347 347 347 347 348 350 350 350 350 349 349 349
328 327 327 326 327 329 331 335 337 338 339 339 339 338 339 341 343 344 346 345 343 340 339 338 336 335 336 338 342 345 345 344 345 348 351 353 354 356 356 355 354 353 352 352 352 351 351 351 351 350 350 350 350 350 351 352 352 351 351 350 349 349 349 348 347 347 346 346 346 346 346 347 347 348 349 349 348 349 350 351 352 352 350 350 350
329 327 326 324 325 329 331 331 332 332 333 334 335 337 339 341 343 343 342 342 340 338 337 335 332 331 332 333 334 336 336 336 337 342 346 349 351 352 353 354 354 354 353 353 353 353 352 352 351 351 351 350 350 350 350 350 350 350 350 350 349 349 349 348 348 347 347 347 347 347 348 349 349 350 351 352 352 351 350 351 352 353 353 353 352
330 328 327 325 324 327 330 330 330 330 331 333 335 336 336 337 337 335 332 331 332 333 332 331 330 329 330 330 330 331 332 333 335 340 344 345 348 350 350 350 351 351 351 352 352 352 353 353 354 353 352 351 351 351 351 351 351 351 350 351 350 351 351 350 350 350 349 350 350 350 352 352 353 354 355 356 356 356 354 352 351 351 353 354 354
329 329 328 326 325 326 328 329 329 329 330 331 332 332 331 331 330 328 327 327 328 328 328 329 329 328 328 327 327 328 330 331 335 339 340 339 340 343 344 344 344 345 346 347 348 349 350 352 353 353 353 352 351 352 352 353 353 353 353 353 354 354 354 354 354 354 353 353 353 353 354 355 356 356 357 357 357 357 356 356 354 352 351 351 352
327 328 328 327 325 325 326 328 328 328 328 327 328 328 328 328 327 326 326 327 327 328 328 328 328 328 327 327 327 328 329 330 333 335 335 333 334 336 337 338 339 340 341 341 342 343 345 347 349 350 352 352 353 353 352 353 353 353 354 354 354 354 354 355 356 356 356 355 355 354 355 356 356 356 357 356 356 356 355 356 356 355 353 353 352
325 326 327 327 325 324 325 327 327 326 325 324 323 322 323 325 326 326 326 326 326 325 323 323 324 324 324 325 327 328 329 331 331 332 333 333 333 333 334 335 336 336 337 337 338 339 341 342 344 346 348 350 352 352 352 352 353 352 352 352 352 352 352 353 353 354 354 354 353 354 355 355 355 355 355 355 355 355 354 354 354 354 355 354 354
323 324 325 326 325 324 324 326 326 326 325 323 321 320 322 324 326 326 326 325 323 320 317 316 317 319 320 323 326 328 329 331 331 331 331 332 333 333 333 333 334 334 334 334 334 334 336 338 340 342 343 346 348 349 351 352 352 352 352 351 351 352 352 352 352 351 351 352 351 352 353 353 353 353 353 353 353 353 353 353 353 353 353 354 354
323 324 324 325 325 325 325 326 326 325 324 323 321 321 322 324 325 325 324 322 320 317 316 317 319 321 322 324 326 328 329 330 330 329 329 330 332 332 332 332 332 332 332 332 331 331 332 334 335 337 339 340 342 345 346 348 349 349 349 349 349 349 349 350 351 351 350 350 350 350 351 351 351 351 351 351 351 351 351 351 352 352 353 353 353
324 324 324 325 325 326 326 325 325 324 323 322 321 321 321 323 323 323 321 319 318 317 318 320 322 323 324 325 326 328 329 329 329 328 329 329 330 330 330 330 330 329 329 328 328 328 329 329 332 334 336 338 340 342 343 344 344 345 345 345 345 345 345 346 348 349 349 349 349 350 350 350 350 350 351 351 350 350 350 350 350 351 352 352 352
324 324 324 324 324 325 324 324 323 323 322 322 322 322 322 322 321 320 319 318 317 318 319 321 322 322 322 324 325 327 327 327 327 328 328 328 327 327 326 326 326 325 325 325 325 328 329 332 335 337 338 339 341 342 342 343 343 344 344 344 344 344 344 344 345 347 347 348 348 349 349 350 350 350 350 350 350 350 350 350 350 350 351 352 352
324 324 324 323 323 323 323 323 323 323 323 323 323 322 321 321 320 319 318 317 318 318 319 320 321 322 323 324 325 326 326 325 326 327 326 325 324 323 323 323 323 323 324 325 328 330 332 334 336 338 338 339 340 341 342 343 343 344 344 344 345 345 345 345 345 346 346 347 348 348 348 349 349 349 350 349 350 350 350 349 350 350 351 351 352
323 322 322 323 322 322 321 321 321 321 321 321 321 321 320 319 319 318 318 317 318 318 319 319 320 322 324 325 324 324 324 323 324 324 323 322 322 322 321 322 323 323 324 326 328 330 331 333 334 334 335 337 338 338 339 340 341 342 343 344 345 346 347 347 347 347 347 347 347 348 348 348 348 349 349 348 349 349 349 349 349 350 351 351 352
320 320 320 320 320 320 320 319 319 319 319 319 319 319 319 319 318 318 318 317 317 317 318 318 320 322 324 325 324 322 321 322 321 321 321 321 321 321 321 321 322 323 323 323 325 326 327 328 329 329 329 330 331 331 332 333 334 335 337 338 340 342 344 345 345 346 347 348 348 348 349 348 349 349 349 348 349 349 349 349 349 350 351 351 352
318 316 316 316 317 317 317 317 317 317 317 317 317 317 318 318 318 317 317 317 317 317 318 319 319 320 322 324 324 321 320 320 320 319 320 320 319 320 320 320 321 320 320 320 321 322 322 323 323 323 322 323 324 324 325 326 327 327 329 332 333 334 335 335 337 339 341 343 345 347 348 348 349 349 349 349 349 349 349 349 350 350 351 351 352
316 316 314 314 314 314 315 315 314 314 314 315 315 315 315 316 316 317 316 316 316 317 318 319 319 318 319 322 322 320 319 319 318 318 318 318 318 319 319 319 319 318 317 317 318 318 318 318 318 318 318 318 319 319 320 321 321 321 324 327 329 329 329 329 330 332 334 335 338 342 344 346 347 349 349 350 350 350 350 350 350 350 351 351 351
314 315 314 312 312 312 312 312 312 312 312 312 313 313 314 314 315 316 316 316 317 317 318 318 318 317 317 319 319 317 317 318 317 317 317 317 317 317 318 318 317 316 315 315 315 316 315 315 314 314 314 314 314 315 316 316 316 318 321 323 324 324 324 325 326 328 329 330 334 337 338 340 343 347 349 350 350 350 351 351 351 351 351 351 351
312 313 312 311 310 310 310 309 310 310 311 312 312 312 312 313 314 315 315 316 318 318 317 316 316 316 316 316 316 316 317 318 318 318 317 317 317 317 317 316 316 315 314 313 313 313 313 312 311 311 311 311 311 312 312 312 314 315 316 317 318 319 320 321 322 323 325 328 331 333 333 335 338 342 345 348 350 350 351 351 351 351 351 351 351
310 311 311 310 309 308 308 308 309 310 311 311 311 311 311 311 312 313 314 316 317 316 315 314 314 314 314 314 315 316 317 317 317 317 317 316 316 316 316 315 314 313 313 312 312 312 311 310 310 309 309 309 309 309 310 311 312 312 312 312 313 315 316 317 318 320 322 324 326 328 330 333 335 335 336 339 342 344 347 349 350 350 350 350 351
309 309 309 308 308 307 307 308 308 310 310 311 310 310 309 309 310 312 314 315 315 314 314 313 314 313 313 313 314 315 316 316 316 316 315 316 316 315 314 314 313 312 312 312 311 311 310 309 309 308 308 308 307 307 308 309 309 309 309 309 310 311 312 314 315 316 318 320 322 324 327 328 328 328 327 328 330 333 337 341 344 347 349 350 350
307 307 307 307 306 306 306 307 308 309 309 308 308 308 308 308 310 312 313 312 312 313 313 313 313 313 313 313 314 314 314 314 314 314 314 315 315 314 313 313 312 312 311 311 310 310 309 309 308 307 307 307 306 307 307 308 307 307 307 307 308 309 310 311 312 313 315 316 318 320 321 320 319 319 319 320 322 325 328 331 334 338 342 346 348
306 306 305 305 305 305 305 307 308 307 306 306 306 306 307 308 310 311 311 310 310 311 311 311 312 313 313 312 312 312 312 312 313 313 314 315 314 313 312 312 311 311 311 310 310 309 309 308 307 306 306 306 306 306 306 307 306 306 306 306 307 307 308 309 310 311 312 314 315 315 314 313 313 312 313 314 316 318 320 322 325 329 334 340 343
305 305 304 304 303 303 304 305 305 305 304 304 305 305 306 308 310 310 309 308 309 309 309 310 311 311 312 312 312 311 311 312 313 313 314 313 312 311 311 311 310 310 310 310 309 308 307 307 306 306 305 305 305 305 306 306 305 305 305 305 305 306 306 307 308 309 310 311 312 311 310 309 309 308 308 309 311 313 315 317 320 323 328 333 337
304 304 304 303 303 302 302 302 302 302 302 303 305 306 307 309 309 308 307 307 307 308 308 309 309 310 310 311 311 310 311 312 312 312 312 311 311 310 310 309 309 309 309 309 308 307 306 306 305 305 304 304 304 304 305 304 304 304 304 304 304 303 303 304 305 306 308 309 308 307 307 307 306 305 305 306 307 309 312 315 317 319 322 326 331
304 303 302 301 301 301 300 300 300 301 302 304 305 307 308 308 308 307 306 306 306 306 307 307 308 308 309 309 309 309 310 310 311 310 310 309 309 309 308 308 308 308 308 308 307 306 305 304 304 304 303 303 303 303 303 303 303 303 303 302 302 301 301 302 303 304 305 305 305 303 303 303 303 304 305 305 305 306 309 312 314 316 319 322 326
301 300 299 298 299 299 300 300 301 302 303 305 306 307 307 307 306 305 305 305 305 305 306 306 306 307 307 307 307 308 308 308 309 309 308 308 308 307 307 307 306 306 306 306 306 305 304 303 303 303 302 302 302 302 301 301 302 302 302 301 301 300 299 299 300 302 302 301 301 300 300 300 301 303 305 306 306 306 307 309 312 314 317 319 322
299 298 298 298 299 300 300 301 302 303 304 305 305 305 305 305 305 304 304 304 305 305 305 305 305 305 306 306 306 307 307 307 307 307 307 306 306 306 306 306 305 305 305 305 304 304 303 302 302 301 301 301 301 300 300 300 301 301 301 301 300 299 297 296 297 298 299 298 298 298 299 300 302 303 305 307 307 307 307 309 311 313 315 316 318
298 298 299 300 300 300 301 302 302 304 304 304 304 304 304 304 303 303 303 304 304 303 303 304 304 304 305 305 305 305 305 305 305 305 305 305 305 305 305 304 304 304 304 303 303 302 302 301 301 300 300 300 300 300 300 300 300 300 299 299 298 297 296 295 295 296 297 297 297 298 299 301 302 303 304 306 306 306 307 309 310 311 312 314 315
298 299 299 300 300 301 302 302 303 303 303 302 302 303 303 302 302 302 303 302 302 302 302 303 303 303 303 304 304 304 304 304 304 304 304 304 304 304 303 303 303 303 302 302 302 301 301 300 300 300 300 300 300 300 299 299 299 298 297 296 295 294 294 295 295 296 296 297 297 298 299 301 302 303 304 306 307 308 309 310 310 310 311 313 314
299 299 299 300 301 301 301 301 301 301 301 300 301 301 301 301 301 301 301 301 301 301 301 302 302 302 302 303 303 303 303 303 303 303 303 303 302 302 302 302 302 302 301 301 301 301 300 300 300 299 299 300 299 299 299 298 298 297 296 295 294 294 294 294 294 295 296 296 297 298 299 301 303 304 306 307 308 309 310 310 310 310 311 312 313
299 299 299 300 300 300 300 299 299 299 299 299 299 300 300 300 300 300 300 300 300 300 300 300 300 300 301 301 302 302 303 303 303 303 302 302 302 301 301 301 301 301 301 301 300 300 300 300 299 299 299 299 299 298 298 297 297 297 296 295 294 293 293 293 293 294 295 296 297 298 300 302 304 306 307 308 308 308 308 308 309 309 310 311 313
298 299 299 299 299 299 298 298 298 298 298 298 298 298 298 299 299 299 299 299 299 299 299 299 299 299 300 300 301 301 302 302 302 301 301 301 301 300 300 300 300 300 300 300 300 299 299 299 299 299 299 298 298 298 297 297 296 295 295 294 293 292 291 292 292 294 295 296 298 299 301 303 305 306 307 308 308 307 307 307 308 308 310 312 313
298 297 297 296 296 297 297 297 297 297 297 297 296 297 297 298 298 298 298 298 298 298 298 298 298 298 299 300 300 301 301 301 301 300 300 300 299 299 298 298 298 298 299 299 299 299 298 298 298 298 298 298 297 297 297 297 296 294 293 292 291 291 291 291 292 294 295 297 298 300 301 303 305 307 308 308 308 307 307 307 308 309 311 312 313
296 296 295 295 295 295 296 296 296 296 296 295 295 296 297 297 297 297 296 296 296 296 296 297 297 298 298 299 299 299 300 300 299 299 299 298 298 297 297 297 297 297 297 297 297 297 297 297 297 297 297 297 297 297 296 295 294 292 291 291 291 291 291 291 292 293 295 297 299 301 303 304 306 307 308 307 307 307 308 309 309 309 310 311 312
Wind_Speed
29 30 30 30 29 29 27 27 27 26 22 19 19 20 20 21 22 22 21 20 19 19 19 19 18 18 17 17 17 17 18 18 17 16 15 16 16 16 15 15 16 17 17 17 16 15 14 13 13 14 14 13 11 10 10 10 10 9 8 7 7 7 7 8 8 11 15 15 15 15 13 12 12 12 13 13 13 12 13 14 15 17 18 19 17
25 25 26 27 27 27 26 26 27 26 24 21 20 20 20 20 21 21 22 21 20 20 19 19 19 19 19 19 18 18 18 18 18 17 16 16 16 16 17 16 16 17 17 17 17 17 16 15 14 14 14 14 14 12 12 12 12 12 11 10 10 9 9 10 9 11 15 19 18 17 17 15 15 15 15 15 15 16 17 17 17 17 17 17 16
23 22 23 24 25 25 25 25 25 26 25 24 22 21 21 20 20 21 22 21 21 21 20 20 20 20 21 21 20 20 19 19 18 18 18 17 16 17 17 17 17 17 17 17 17 17 17 17 16 15 14 15 15 14 14 14 14 14 14 13 14 13 11 11 11 11 14 18 19 19 19 18 18 18 17 16 18 19 19 19 18 16 15 16 16
21 22 23 24 24 25 25 25 25 26 26 25 25 23 22 21 21 21 21 21 22 22 22 21 21 22 22 22 22 21 21 21 20 19 19 18 18 18 17 18 18 18 18 17 17 17 17 18 18 17 16 16 16 15 15 15 16 16 16 15 14 15 14 14 14 14 13 15 18 18 18 18 18 18 17 18 19 18 19 19 18 16 16 16 16
19 20 22 23 24 25 25 26 26 27 27 27 26 25 24 23 23 23 22 22 23 23 24 23 23 23 23 23 23 23 23 23 22 21 21 20 20 19 19 19 19 19 19 19 18 17 18 19 18 17 17 18 19 18 16 16 16 17 17 16 14 14 15 15 16 16 16 17 19 19 17 17 17 17 17 18 19 20 20 21 19 17 17 17 17
18 20 21 22 24 25 26 26 27 28 29 28 27 26 25 25 25 24 24 24 24 24 25 26 26 26 26 25 25 25 24 24 24 24 23 22 22 22 21 20 20 20 20 20 19 19 19 19 18 17 18 19 20 21 20 18 18 18 18 18 16 15 15 15 15 16 17 18 19 20 20 19 18 19 19 17 18 20 22 24 23 20 18 19 19
20 23 23 23 23 24 26 27 28 28 28 28 27 26 25 25 25 25 25 25 25 25 26 27 27 27 27 27 27 26 25 25 25 24 24 24 24 24 24 23 22 22 21 21 21 21 20 19 19 18 19 19 20 20 20 20 20 20 20 19 18 18 18 18 17 17 18 19 19 20 22 21 20 21 21 20 19 20 21 23 25 24 22 22 22
22 24 24 23 23 23 24 25 26 25 25 25 25 25 24 24 24 24 25 25 25 26 26 28 28 28 28 28 28 28 27 27 26 26 25 24 25 25 25 25 25 24 23 22 22 21 21 21 20 20 19 20 20 19 19 19 19 20 20 20 19 20 20 21 20 20 20 20 21 21 22 22 23 23 24 23 22 23 21 18 21 24 24 23 24
20 20 20 20 20 19 19 20 20 19 17 16 16 17 19 21 21 21 21 22 24 25 27 28 29 29 29 29 29 29 29 29 28 27 26 25 25 26 26 26 26 25 25 24 23 23 22 22 22 22 21 20 20 20 20 19 20 22 22 22 22 22 22 22 22 22 22 21 22 23 22 23 25 26 26 25 24 24 23 19 20 24 23 23 24
13 14 13 12 13 13 13 14 14 14 13 12 11 12 15 19 21 21 19 18 18 20 24 27 29 30 30 29 29 30 31 31 31 30 29 27 27 27 27 27 27 26 26 26 25 25 24 23 23 22 22 22 21 21 21 21 22 23 23 24 25 25 24 24 24 23 22 21 23 23 21 22 27 27 26 27 26 25 24 22 22 24 22 22 24
10 8 7 7 7 8 8 9 9 9 9 12 16 17 17 17 19 21 22 19 17 15 18 23 27 29 30 29 29 30 31 32 32 31 31 30 29 29 29 29 28 28 27 27 27 26 26 25 24 23 23 23 23 22 22 22 22 22 23 24 26 27 27 27 26 26 23 22 24 23 21 23 28 28 27 28 27 26 25 23 22 22 21 18 19
11 10 8 7 7 7 6 6 5 5 5 9 12 14 13 11 13 18 22 21 19 15 13 17 21 24 25 25 25 26 28 30 31 31 32 32 31 31 31 31 30 29 29 29 28 28 27 27 26 26 26 25 25 24 23 23 23 23 23 24 26 27 28 27 28 28 26 25 25 25 25 26 29 30 30 29 27 26 25 23 22 21 21 19 19
13 12 11 11 9 8 9 9 9 8 6 4 5 7 9 9 10 15 18 19 18 16 14 14 16 19 20 19 19 19 20 22 25 27 29 31 31 31 32 32 31 31 30 30 29 29 28 28 29 29 28 28 27 26 26 26 25 24 25 25 26 26 26 26 26 27 28 28 28 28 29 29 29 32 32 29 27 27 26 26 25 23 22 22 23
14 14 13 13 12 10 9 10 10 10 8 7 6 5 6 7 8 9 11 13 12 12 12 12 11 13 15 16 16 16 15 15 16 18 21 24 27 29 31 31 32 32 32 32 31 30 29 29 29 29 28 28 28 27 27 27 27 27 26 26 27 27 27 28 28 26 26 27 28 30 31 30 31 33 34 31 30 30 29 29 28 26 26 27 27
15 14 13 12 12 11 10 10 10 8 7 7 9 9 7 5 6 6 4 3 3 3 5 7 9 10 10 11 13 14 14 14 13 13 14 16 19 23 27 29 30 32 32 33 33 32 32 30 30 30 29 28 28 27 27 28 28 28 29 29 29 29 29 30 28 27 27 27 28 29 29 30 31 31 32 31 32 33 32 30 28 28 29 29 29
18 17 16 15 12 10 10 11 13 12 10 9 10 11 10 6 2 2 3 2 2 2 4 4 5 7 8 7 6 7 9 11 12 12 11 12 13 15 18 21 25 28 31 32 33 33 32 31 30 30 30 30 30 28 28 28 28 29 30 30 31 32 32 31 29 29 30 30 30 31 31 31 32 32 32 32 32 34 33 30 29 30 29 26 26
19 18 18 17 15 12 10 9 11 13 14 14 14 14 11 8 5 2 2 2 1 1 3 5 5 4 6 6 5 3 3 4 6 7 8 9 10 11 12 13 16 19 23 27 30 31 32 31 30 30 30 31 32 31 29 28 28 29 30 31 32 33 34 33 31 31 32 31 32 32 31 31 31 31 32 32 32 35 33 30 31 32 28 21 20
19 17 16 15 16 15 13 10 9 10 11 12 11 10 8 6 6 7 6 7 7 6 6 6 5 5 5 6 6 6 6 5 4 5 6 7 8 9 10 11 12 13 15 17 20 23 25 27 28 29 31 32 32 32 30 28 27 28 29 30 31 33 34 33 32 31 31 29 29 28 28 28 27 27 28 29 29 31 32 33 34 32 27 22 22
16 16 14 13 15 15 15 13 11 11 10 10 10 9 8 7 7 9 11 13 13 13 13 11 10 10 10 10 10 9 9 9 8 7 7 7 8 8 8 10 11 12 14 15 16 17 18 20 21 23 26 28 28 29 29 28 28 29 29 28 29 32 33 32 29 29 28 26 26 26 25 25 25 25 27 27 27 28 30 33 33 31 29 29 28
11 12 13 13 14 14 14 14 14 14 14 14 15 14 13 13 11 11 13 14 14 15 15 15 14 13 12 13 13 14 14 13 11 10 10 8 7 6 7 8 10 11 13 14 16 17 18 19 19 19 20 21 22 23 24 25 27 29 29 28 29 31 31 28 26 25 25 25 26 27 27 27 27 26 27 28 28 28 29 30 31 31 31 32 31
6 8 11 13 15 15 15 15 15 17 18 18 19 19 18 18 17 16 15 14 15 16 16 16 15 13 12 13 15 16 17 16 14 13 13 11 9 7 6 6 8 10 11 12 14 15 17 19 19 18 18 19 19 20 21 22 23 25 26 27 28 29 28 27 26 25 26 27 29 30 30 30 29 28 28 29 28 28 28 28 30 31 31 33 33
6 5 7 12 15 14 14 15 16 17 17 17 18 19 19 18 18 17 16 16 16 17 17 16 15 14 14 16 18 18 18 18 17 15 14 15 13 11 10 9 10 11 12 13 13 14 15 16 16 17 18 18 19 19 19 19 19 20 21 22 23 23 24 25 25 25 26 27 28 29 30 30 30 30 30 30 30 29 28 28 28 29 30 32 32
8 6 6 9 13 13 13 13 14 16 16 16 17 17 18 18 18 17 17 17 17 18 18 18 17 17 17 18 20 20 19 19 17 15 15 17 17 14 12 11 10 11 12 13 14 13 14 14 15 16 17 18 19 19 19 20 20 21 22 22 22 22 22 23 23 23 24 24 24 25 27 28 29 30 31 31 32 32 31 30 28 28 28 30 31
8 7 6 6 9 11 11 11 12 14 14 15 16 17 16 16 17 17 17 17 18 19 20 20 20 20 21 20 21 20 20 19 19 17 16 17 17 16 15 14 13 12 12 13 13 14 14 14 15 16 17 17 18 19 19 20 21 22 23 23 24 24 24 25 25 24 24 23 23 25 27 28 29 31 32 34 34 34 33 31 29 29 29 30 31
8 7 6 6 6 7 8 9 10 11 13 14 16 17 16 15 16 17 17 17 18 20 21 21 21 21 21 22 22 21 20 19 19 19 19 18 16 16 17 17 17 16 15 15 15 15 15 14 15 16 16 17 18 18 18 19 18 19 19 19 20 21 21 23 24 24 24 25 25 26 28 29 30 32 33 34 33 32 31 30 30 29 29 30 31
8 7 7 5 4 4 6 6 7 9 11 13 15 15 15 15 15 16 17 18 19 21 21 21 21 21 22 22 22 21 19 19 20 20 21 20 18 17 18 18 18 19 19 19 18 17 16 15 14 15 15 16 17 17 18 18 19 19 19 19 18 18 18 18 20 21 24 25 25 26 28 28 29 30 31 30 31 30 30 29 30 30 29 29 30
9 8 7 5 4 5 7 7 7 8 10 11 12 13 14 14 14 16 18 19 20 21 21 20 21 22 23 23 22 21 20 20 20 22 22 21 19 19 19 20 21 21 22 22 21 20 18 15 13 12 13 14 15 15 16 16 17 18 19 19 19 18 17 17 17 19 21 23 24 25 26 27 27 28 29 29 30 30 29 28 29 29 29 27 27
11 12 12 10 9 9 9 8 8 8 8 9 10 11 13 13 15 16 18 19 19 20 20 20 21 21 22 23 23 22 21 21 21 22 22 21 20 20 21 23 24 25 25 24 21 18 16 15 15 15 15 14 15 16 16 16 16 17 18 19 19 19 18 17 17 18 20 22 23 25 25 26 26 27 28 29 30 30 29 27 27 29 28 25 24
12 12 13 13 12 11 10 10 10 9 9 9 10 11 12 13 14 15 16 17 18 18 18 19 20 20 20 21 21 20 20 21 19 18 17 18 19 21 23 24 24 25 24 22 19 17 16 17 19 20 19 18 18 18 18 18 18 18 19 20 20 19 19 18 19 20 21 22 23 25 26 26 27 28 28 29 31 30 28 26 26 27 27 24 24
12 13 13 13 14 13 13 13 12 12 11 10 9 9 10 12 13 15 15 16 16 16 16 17 19 19 19 19 19 19 19 19 18 16 16 17 19 21 23 23 23 22 21 20 19 19 20 20 20 21 21 20 20 20 20 20 20 19 19 19 20 20 20 20 20 22 22 23 24 25 26 26 27 28 27 28 30 30 28 26 25 25 24 24 25
14 14 14 14 13 13 13 13 13 13 13 12 11 11 10 10 12 14 15 16 15 14 14 15 17 18 18 17 18 19 19 19 19 18 19 20 21 22 23 22 22 21 21 21 20 21 21 20 20 21 22 21 21 22 22 22 22 21 21 20 20 20 19 20 21 22 23 23 24 25 25 25 26 27 27 28 29 29 28 27 25 24 24 24 25
15 15 14 13 13 13 12 13 13 13 13 13 13 13 13 14 14 14 15 15 15 14 14 15 16 17 17 16 17 19 20 21 21 21 21 22 23 23 22 21 21 22 23 23 22 20 20 19 19 20 21 20 21 21 22 22 22 23 23 22 21 22 22 22 22 22 21 21 22 23 24 24 25 27 27 27 28 28 27 26 25 24 25 25 25
14 15 14 12 13 13 12 13 13 14 15 15 14 15 15 16 16 17 17 16 15 14 13 14 15 16 16 16 17 19 20 21 22 22 22 22 23 22 21 20 20 22 24 24 22 20 19 18 17 17 17 18 18 19 20 21 21 22 22 22 22 23 24 24 24 23 23 24 23 22 22 23 25 26 27 27 26 26 26 26 25 24 23 24 25
11 13 13 12 12 13 13 13 13 14 14 15 15 15 15 15 15 16 17 17 16 15 14 14 14 15 16 15 16 18 20 21 21 21 21 22 22 22 21 20 20 22 24 24 21 19 18 17 17 17 17 17 17 18 18 20 20 20 21 21 22 24 26 26 25 24 25 25 24 23 23 25 25 25 25 25 25 24 25 24 23 22 22 23 24
8 9 10 11 12 13 14 14 14 14 14 14 15 15 14 14 13 13 14 15 14 14 15 15 15 15 15 16 17 18 19 19 19 19 20 21 22 22 21 21 21 23 24 23 20 18 17 17 16 17 17 17 17 17 18 18 18 19 20 22 23 24 25 26 25 25 26 25 24 24 25 26 25 25 24 22 22 22 23 24 24 23 23 24 24
8 8 9 11 12 13 14 14 13 13 13 13 14 14 14 13 13 13 13 12 11 12 14 15 15 15 15 16 17 17 18 17 16 17 17 18 20 21 20 19 20 21 22 23 21 19 18 17 17 17 17 17 17 17 17 17 17 17 19 21 23 23 24 24 25 25 26 25 24 25 25 25 24 24 23 23 22 22 22 24 25 26 27 27 27
8 8 9 11 12 13 13 13 12 12 13 13 13 14 14 14 14 13 13 12 11 12 14 15 15 16 17 17 18 18 17 16 15 16 16 15 16 17 17 16 17 19 20 21 21 20 20 19 19 18 18 19 19 18 17 17 17 18 19 21 23 23 23 23 24 24 24 24 25 24 23 22 22 23 24 24 25 24 24 24 25 27 29 30 29
8 9 10 11 12 12 13 12 12 13 13 14 14 14 14 14 14 14 13 13 13 13 14 14 14 15 17 17 17 18 18 17 18 18 15 13 14 15 15 15 16 17 18 19 19 19 20 20 20 19 19 19 20 20 18 17 18 19 22 24 24 24 23 24 24 24 23 23 23 22 21 22 24 25 26 25 26 25 25 25 26 27 28 28 27
7 9 10 11 12 12 12 11 12 13 15 15 15 14 14 15 14 14 14 14 14 14 14 15 15 15 16 17 17 18 19 19 19 17 14 11 11 14 15 15 16 17 18 19 18 17 19 20 21 21 21 20 19 19 19 18 19 21 24 24 24 24 24 24 24 25 25 24 23 22 23 26 27 27 26 24 25 26 26 26 27 27 27 27 27
7 8 9 10 11 12 12 11 12 14 16 16 15 15 15 14 13 13 15 15 15 15 15 15 16 16 16 17 17 18 19 18 16 13 11 9 10 12 13 14 14 15 17 19 18 18 19 20 20 21 22 22 20 18 18 19 20 21 22 22 22 23 23 23 23 24 24 24 24 24 27 29 31 30 29 26 25 26 26 27 28 28 27 27 28
8 8 8 9 10 12 12 13 14 15 15 15 16 16 15 12 12 13 14 15 15 15 15 15 16 17 16 16 17 17 17 16 14 12 11 10 10 11 12 12 13 15 17 19 19 19 19 20 20 21 22 21 20 19 18 19 20 20 19 19 19 21 22 22 22 23 22 23 24 26 29 32 33 33 33 31 28 26 25 26 27 29 29 29 29
8 9 10 11 12 12 13 14 14 14 13 14 15 14 13 12 13 14 15 15 15 16 15 16 17 17 16 16 17 17 16 15 14 14 14 14 13 12 11 11 12 14 16 18 19 19 20 21 21 21 21 20 20 19 19 20 20 18 17 18 20 22 23 22 22 22 22 22 24 27 31 35 36 35 35 34 31 29 26 26 27 28 29 28 28
10 12 13 13 12 12 12 13 13 13 13 14 14 13 12 13 14 16 16 17 16 16 16 16 17 16 16 17 17 16 15 15 14 15 15 16 15 13 12 12 12 14 16 17 18 19 21 21 21 20 20 19 19 18 18 18 18 16 16 20 24 26 25 23 22 21 22 23 27 31 35 37 38 36 35 35 33 31 29 28 27 27 26 26 28
12 12 11 10 10 10 10 11 12 13 13 13 13 13 14 15 16 17 17 16 16 16 17 17 17 17 17 17 16 15 15 15 15 15 16 16 15 14 14 15 16 17 17 18 18 19 20 20 20 20 19 18 16 16 15 15 15 16 19 24 27 28 27 26 23 22 24 27 31 35 36 37 37 36 36 36 34 33 31 28 27 27 28 28 28
10 8 7 8 9 10 10 11 12 13 12 12 13 14 15 15 16 16 16 16 16 17 18 18 18 18 18 17 15 15 16 16 16 16 16 16 16 16 16 18 19 19 19 18 18 18 18 18 18 17 16 15 14 14 14 14 15 17 21 24 26 27 27 26 25 26 28 31 33 35 35 36 36 36 36 36 35 34 32 30 28 28 29 29 28
6 5 6 7 9 9 10 10 11 11 12 13 13 13 14 14 15 16 16 17 18 19 19 18 18 19 19 18 17 16 17 17 17 17 17 17 18 18 18 19 20 20 19 19 18 18 18 17 16 15 14 13 13 14 14 15 17 20 22 23 24 24 25 26 27 29 30 31 33 34 34 35 35 35 35 35 34 33 34 33 32 30 29 29 29
4 5 6 7 8 8 9 9 10 11 13 14 13 12 14 15 16 16 16 18 18 19 19 18 19 19 19 19 18 18 18 18 18 18 18 19 19 18 18 19 20 20 20 19 18 18 17 17 16 16 15 15 15 14 15 17 19 21 22 23 24 24 25 26 27 29 30 31 32 32 32 33 34 35 34 34 33 33 34 34 33 31 29 29 30
4 5 5 6 6 7 8 9 10 11 11 12 12 12 13 15 15 15 16 18 18 18 18 19 19 20 20 20 20 20 20 19 18 17 17 18 18 18 19 20 20 21 21 20 19 18 17 17 17 17 17 17 16 16 17 18 20 21 23 24 24 24 25 25 27 29 30 30 31 31 31 32 33 33 33 33 33 33 34 35 34 32 30 29 29
3 4 5 6 7 8 9 10 10 10 10 11 12 13 13 14 14 15 16 16 17 17 18 19 20 21 21 21 21 21 20 18 17 17 17 17 18 19 20 20 21 22 22 21 19 18 18 18 17 17 16 16 17 17 19 20 21 22 23 24 24 24 24 25 26 27 28 30 31 31 30 31 31 31 31 31 31 33 34 33 32 30 29 28 28
3 5 6 7 8 8 9 10 10 11 11 12 13 14 14 14 14 15 15 15 17 18 20 21 21 22 21 21 20 20 20 18 17 17 17 18 19 21 21 21 21 21 21 20 19 19 18 18 17 16 17 17 18 19 20 21 22 22 23 23 23 24 24 25 26 26 27 29 30 30 29 29 29 29 28 28 29 30 31 30 29 28 28 28 30
4 6 7 7 8 9 10 11 11 12 13 14 14 13 13 13 14 15 15 17 18 20 20 21 21 20 20 21 20 20 19 18 18 18 18 19 20 21 22 22 22 22 21 20 20 19 19 18 17 17 18 19 20 21 21 21 21 21 21 22 22 23 23 24 25 26 26 27 28 28 27 27 26 26 26 26 26 27 28 27 27 27 28 29 30
Wind_Direction
203 206 209 212 215 218 220 222 222 224 226 228 230 232 234 234 233 234 236 237 237 237 239 238 237 236 235 234 234 235 235 236 236 238 242 246 247 248 249 250 253 254 256 259 257 259 265 268 265 260 260 268 277 284 289 288 290 294 297 298 298 293 286 277 275 287 296 300 303 306 312 312 308 313 317 314 312 310 311 314 313 312 311 310 308
204 207 209 211 215 218 221 223 223 225 229 230 230 230 232 235 236 237 239 239 239 239 239 239 238 238 237 238 238 239 239 238 236 236 237 241 244 246 246 247 249 250 252 254 251 251 257 261 263 261 258 262 268 271 277 280 281 284 286 284 285 288 290 288 285 286 294 301 305 307 311 312 310 312 316 316 318 319 319 318 314 309 307 307 307
203 206 210 213 216 220 223 224 224 227 230 232 232 231 231 233 235 238 240 243 243 242 242 242 242 242 241 241 241 240 240 240 238 236 237 238 241 243 244 243 244 245 246 248 248 249 252 257 262 263 258 258 262 266 270 273 274 278 280 278 276 276 281 287 287 285 291 300 306 308 309 308 307 309 311 310 314 320 322 323 319 310 303 302 304
200 205 208 212 215 220 224 226 226 228 231 234 235 235 235 235 235 237 241 246 247 246 246 247 247 245 242 240 240 241 240 240 239 239 240 243 244 244 243 242 241 241 242 245 248 250 254 258 263 265 261 258 261 265 269 269 269 273 277 277 272 269 270 274 281 285 286 292 300 306 307 305 304 306 307 306 309 315 318 320 319 312 302 299 302
194 200 205 208 212 217 222 225 226 227 229 232 235 236 238 239 239 240 242 246 249 250 250 250 250 248 244 241 242 243 243 242 241 240 242 245 247 248 247 245 244 243 242 244 247 250 255 260 264 265 263 259 260 264 268 268 267 269 275 276 271 268 268 268 273 280 280 283 292 299 302 301 301 300 300 302 305 310 312 314 316 314 308 302 302
202 201 202 206 211 216 220 223 226 228 229 231 233 236 239 240 242 242 242 244 248 251 252 252 252 250 248 247 246 246 246 245 245 245 245 246 247 250 252 251 250 249 248 249 250 252 256 260 264 265 263 262 261 263 266 268 267 270 275 277 274 272 273 271 271 276 278 280 285 290 294 295 296 295 296 298 300 305 308 310 312 315 314 311 309
223 216 209 208 212 217 219 222 225 228 230 231 231 234 238 241 243 244 244 245 248 251 252 253 253 252 251 250 250 249 248 247 248 249 249 250 250 251 253 255 255 254 254 254 255 257 258 260 264 266 265 265 266 268 269 269 269 271 276 278 275 274 275 275 274 275 276 278 279 282 286 289 291 291 293 296 296 296 300 305 308 312 314 315 314
224 223 218 215 219 223 225 227 228 230 233 235 235 236 238 241 245 247 249 252 254 255 254 254 254 253 253 251 250 250 249 247 248 249 251 252 252 253 254 256 257 258 258 258 258 259 261 262 264 267 267 267 268 270 271 272 273 274 277 279 278 275 275 275 276 277 276 276 278 280 283 285 286 287 289 292 291 292 297 298 299 304 310 313 314
210 213 215 217 221 226 230 232 231 230 232 235 237 236 235 236 238 242 246 252 258 260 260 258 255 254 253 252 250 249 249 249 249 249 250 251 250 252 255 256 258 258 259 260 260 261 262 264 266 267 269 270 270 270 271 273 275 277 279 282 281 279 277 276 276 276 275 274 276 279 282 283 285 286 288 289 291 294 299 298 294 300 305 306 308
187 192 197 206 214 221 226 227 224 221 219 218 214 213 219 226 229 230 233 239 248 256 258 257 256 255 255 254 252 248 247 250 252 252 252 252 252 252 254 256 257 257 257 258 260 261 263 265 267 269 271 273 273 273 274 274 275 278 280 282 282 281 279 277 277 276 273 271 273 277 278 279 284 286 287 291 295 296 298 297 296 299 303 302 306
148 150 157 174 190 198 205 208 209 210 212 214 213 213 216 222 228 230 230 231 234 244 254 254 251 253 255 256 255 252 250 250 253 254 255 254 254 254 255 257 257 255 255 256 258 261 263 265 268 270 271 273 274 274 276 277 278 278 278 280 280 279 277 275 275 275 273 270 272 275 273 275 283 287 288 291 295 296 298 298 297 297 298 297 299
118 115 112 119 135 147 154 159 167 181 204 219 223 224 226 232 240 243 240 237 235 238 251 255 249 246 249 252 253 253 255 256 256 256 257 257 256 255 256 258 258 257 256 257 259 261 263 265 268 269 270 272 273 274 275 277 279 279 280 281 282 281 278 274 272 272 271 269 271 273 272 274 281 286 288 291 295 297 299 299 298 296 295 290 287
98 95 92 94 100 116 128 125 117 124 147 185 218 229 233 238 248 257 259 254 248 247 253 262 261 250 244 245 248 249 253 258 258 258 259 260 260 258 257 257 257 258 259 259 260 262 263 265 267 269 271 271 271 272 273 275 278 279 281 282 282 283 284 281 279 276 273 269 267 270 274 274 276 283 287 289 291 294 294 295 297 297 294 292 290
87 83 79 78 78 85 107 117 110 104 105 107 116 150 184 200 213 243 266 267 261 261 262 266 276 271 253 244 244 246 247 252 257 259 259 260 261 260 259 258 257 257 259 260 261 262 264 266 268 271 273 273 272 272 272 273 275 277 280 280 280 281 282 284 285 284 281 274 268 270 277 278 277 283 290 288 285 287 288 289 293 294 294 294 294
81 79 74 69 69 73 84 96 96 90 90 95 98 103 110 133 164 179 212 248 254 290 297 283 283 291 282 258 246 247 248 247 251 257 260 262 262 260 259 259 258 258 258 259 261 263 265 266 267 270 273 274 275 275 274 274 274 275 277 278 278 279 279 281 284 285 286 284 280 281 286 287 285 289 293 290 287 289 288 286 288 290 291 293 293
74 73 68 59 56 64 80 91 91 87 85 85 80 78 74 65 72 170 184 167 142 101 51 17 313 298 301 291 266 256 255 253 254 259 265 269 271 271 269 266 262 260 260 260 261 262 265 266 267 270 272 274 277 278 278 277 275 274 275 276 278 278 278 280 282 283 284 284 284 285 287 289 289 290 291 289 287 288 287 284 285 286 286 289 290
66 67 65 60 55 60 76 92 91 83 74 68 65 62 63 64 60 70 182 156 119 138 89 61 32 338 318 319 327 328 311 288 270 265 268 271 272 277 282 282 277 271 267 265 263 263 264 266 268 270 273 275 278 280 280 278 275 274 275 276 277 278 279 282 283 284 284 283 283 284 285 287 288 288 289 288 287 287 282 277 281 284 283 283 284
59 59 59 59 56 58 68 80 85 78 67 62 59 55 56 68 73 73 82 85 78 76 82 81 65 32 5 5 18 24 19 5 330 295 281 274 271 273 278 285 288 287 284 279 274 272 270 270 270 270 271 274 277 279 279 278 275 274 274 275 276 277 280 283 285 286 287 286 286 286 287 288 289 291 292 291 291 290 281 277 281 281 276 275 275
57 55 53 54 54 57 66 75 77 74 69 67 67 65 64 63 54 55 65 71 73 72 71 73 69 55 39 35 41 40 30 21 7 346 326 304 294 292 294 299 302 301 298 294 287 284 283 282 280 278 277 278 279 280 280 278 276 276 276 274 273 274 279 283 285 287 289 289 288 288 287 288 289 290 292 292 292 291 285 283 283 277 269 270 272
55 56 52 51 55 58 66 76 79 77 78 78 76 75 76 76 70 65 66 68 67 63 59 58 58 52 38 34 41 41 33 27 23 15 4 350 334 321 312 312 315 312 307 302 296 292 290 290 293 295 295 292 288 285 282 279 276 276 275 272 270 274 280 283 283 283 284 283 284 284 284 285 287 287 289 291 291 289 286 285 283 277 271 269 269
46 54 51 50 51 55 65 76 81 81 82 82 80 75 73 74 73 68 64 61 58 55 51 50 53 51 41 36 40 41 36 33 33 29 21 15 11 6 356 343 332 323 317 315 313 308 303 299 298 299 300 297 294 290 287 283 280 277 276 274 275 279 281 281 279 279 279 279 281 283 284 286 287 288 290 291 291 290 288 284 281 277 273 269 268
35 43 49 50 48 50 61 71 76 77 78 78 76 71 66 65 63 58 55 52 50 48 43 40 42 41 36 34 36 37 37 37 38 37 29 21 17 13 11 9 359 348 341 336 332 327 321 314 305 296 289 286 287 287 285 284 282 280 280 281 283 285 284 283 283 283 283 284 285 286 287 288 289 290 290 289 289 289 288 285 282 279 276 274 272
38 42 53 56 51 50 57 65 68 68 67 66 66 62 58 57 55 51 49 47 44 41 36 30 28 25 23 26 29 30 33 35 36 34 28 22 20 17 15 11 5 359 355 349 343 338 332 326 318 307 297 289 285 283 282 281 280 278 280 281 284 287 289 288 288 289 289 290 288 287 288 289 289 289 290 290 290 290 288 286 284 280 278 278 277
35 41 51 61 57 54 56 60 61 59 55 52 54 54 53 55 56 53 50 45 40 35 29 22 18 14 12 14 18 22 26 30 33 30 22 17 19 20 19 17 13 10 6 359 353 346 338 332 326 320 314 308 301 295 292 289 286 284 283 283 284 286 287 286 287 288 288 286 284 283 286 287 287 287 288 290 291 290 287 284 281 278 277 278 280
25 26 32 45 55 55 54 55 54 51 47 44 46 50 52 56 59 57 51 46 38 29 23 17 14 10 7 6 10 15 20 25 28 25 19 15 16 16 14 13 12 12 10 7 0 352 344 337 331 327 324 320 314 309 304 300 297 295 293 292 290 288 287 286 286 285 282 281 281 281 283 285 287 288 290 291 291 288 285 282 278 276 276 277 278
25 18 15 20 32 45 51 52 47 46 47 45 45 46 48 52 56 53 46 40 32 25 21 18 15 11 8 6 5 8 14 19 18 16 13 13 15 13 10 9 9 7 6 3 357 352 347 343 338 333 331 328 324 318 313 310 307 304 302 300 299 296 293 291 289 285 282 282 282 282 284 287 290 290 291 291 290 288 284 279 276 275 274 274 275
46 44 44 47 56 68 70 67 57 51 48 44 41 42 43 44 46 42 37 31 27 25 24 22 18 12 7 5 4 7 12 13 9 8 9 12 15 15 11 9 8 6 4 1 357 354 350 348 349 347 342 338 332 326 324 322 318 314 310 308 307 306 302 299 295 291 287 286 286 286 288 291 291 292 293 293 292 290 287 281 276 274 274 273 272
65 64 69 75 80 79 75 67 60 56 53 46 42 42 41 40 40 39 35 30 27 27 26 25 19 12 8 6 4 4 9 11 9 9 10 12 15 15 11 8 7 6 5 3 1 0 358 359 5 7 4 357 346 339 337 337 335 333 328 323 320 317 313 307 301 296 294 294 293 293 295 296 295 296 296 294 292 292 291 286 279 276 275 271 266
66 63 62 63 64 65 65 62 60 61 62 59 54 46 38 34 33 33 33 32 30 28 28 26 21 14 13 14 10 5 7 13 17 20 19 17 16 14 12 10 8 7 7 4 5 9 13 15 15 13 9 4 356 349 345 342 342 342 337 331 326 321 318 313 306 302 302 300 297 296 296 296 296 295 294 291 289 290 290 286 281 278 275 268 261
61 57 54 54 56 60 65 64 61 58 55 50 44 35 28 28 29 27 27 27 27 26 28 28 24 20 22 28 31 29 25 25 27 26 22 18 14 13 14 14 12 11 9 7 11 19 20 18 17 14 10 5 1 356 351 348 347 346 343 337 329 321 316 310 306 305 304 301 298 297 296 294 293 292 290 287 287 288 287 283 281 278 272 265 263
59 54 54 57 58 60 61 57 53 52 49 43 34 23 11 10 18 22 21 18 16 19 23 26 26 26 28 30 33 33 30 26 21 17 14 11 10 11 13 15 17 17 15 14 20 24 20 15 13 10 7 5 3 359 357 355 353 351 351 348 343 337 331 324 318 315 310 303 299 297 294 291 290 290 288 285 285 286 286 282 279 276 272 268 266
58 52 50 54 55 53 51 46 42 40 39 37 33 26 15 6 4 7 10 10 10 12 18 22 22 22 23 23 20 18 16 13 10 8 6 5 6 8 11 14 16 17 17 20 24 22 16 13 10 4 360 357 354 351 350 349 347 347 347 346 343 342 341 338 337 336 332 325 317 308 302 296 292 289 288 287 285 283 283 281 278 275 274 273 272
55 48 40 40 43 41 37 33 30 28 28 28 26 24 20 14 8 3 2 4 7 11 19 23 18 13 14 15 11 8 6 3 2 2 1 0 1 4 7 11 14 15 17 22 25 21 15 12 8 1 357 351 345 342 341 338 338 340 340 339 336 334 333 335 338 339 338 338 335 328 322 316 307 297 290 287 285 283 282 281 279 276 274 274 274
53 46 37 29 29 28 25 22 18 16 17 19 19 19 19 17 13 8 4 2 4 10 17 18 14 11 11 9 4 3 3 0 359 359 358 358 359 359 358 0 7 13 18 23 26 21 14 9 2 356 352 348 344 342 338 334 334 336 335 333 331 330 330 333 336 335 335 335 334 331 331 331 327 316 300 288 283 282 281 281 280 278 275 273 274
47 42 31 22 20 20 18 15 13 11 10 11 13 14 15 15 15 12 8 5 7 9 10 10 8 7 8 7 4 3 3 2 359 357 356 355 355 354 355 0 8 13 16 19 21 18 13 8 2 356 351 346 343 340 336 333 334 335 334 332 330 329 331 333 333 333 334 333 330 329 330 332 333 331 322 306 294 289 286 285 285 283 280 279 278
35 30 21 14 12 11 9 9 12 13 12 11 10 9 11 13 13 11 9 10 9 6 4 4 3 1 2 5 7 5 3 3 3 0 357 355 355 357 2 11 16 15 13 12 11 8 6 4 1 358 354 347 341 336 333 332 333 332 332 333 332 331 332 332 332 332 332 330 329 330 331 331 331 335 337 331 323 316 309 302 297 291 286 282 280
22 19 14 7 1 360 1 3 8 13 15 14 11 8 7 8 8 9 11 10 6 2 2 3 3 2 2 5 7 5 2 1 1 2 0 357 357 1 7 12 13 12 9 6 3 360 358 357 355 354 352 349 346 340 334 331 331 332 333 334 333 332 331 330 331 331 330 329 330 331 332 333 334 337 339 336 331 328 325 320 315 307 298 289 281
15 12 9 3 356 355 357 360 5 9 9 8 8 7 5 4 4 6 8 6 2 1 2 2 3 3 3 4 4 1 358 356 356 360 1 357 357 2 6 6 7 7 3 0 357 354 351 350 349 348 346 345 346 344 338 333 330 331 332 333 332 332 332 331 332 332 330 329 330 330 331 333 334 335 335 332 327 324 323 322 321 318 312 304 292
4 360 357 355 352 352 353 355 359 359 357 357 360 1 0 359 359 1 3 3 3 1 359 359 359 359 359 359 358 357 356 355 356 359 0 356 357 1 1 358 358 358 355 352 351 348 345 345 345 345 343 340 340 341 338 334 331 330 331 331 331 331 332 333 331 331 330 327 325 326 330 330 329 329 330 327 322 320 319 318 317 315 312 309 303
358 356 355 355 354 352 350 349 347 345 347 348 350 352 353 354 356 359 0 360 358 356 355 355 355 355 355 356 354 354 354 354 358 3 3 356 354 355 353 350 349 348 347 346 343 340 341 342 342 342 340 338 336 334 332 331 330 329 329 329 329 328 329 329 327 326 326 324 321 321 323 325 325 326 326 322 320 318 316 315 314 312 307 304 301
356 355 352 350 348 345 343 341 338 335 337 339 343 346 348 348 352 356 356 354 352 350 350 350 350 350 352 351 350 352 353 353 355 359 359 354 348 345 343 340 338 339 339 338 336 336 337 339 339 339 338 336 333 330 327 326 327 327 326 325 326 326 324 324 324 323 322 320 319 318 319 321 324 325 323 320 319 318 314 311 311 309 306 303 300
350 348 341 338 336 334 334 335 334 332 334 339 343 345 344 344 348 352 349 347 346 344 342 344 345 347 348 348 348 349 351 349 348 348 348 348 344 339 335 332 331 333 333 331 332 334 336 335 336 336 334 332 329 326 323 322 323 324 322 322 325 327 325 322 321 322 321 319 317 317 319 321 323 324 322 320 319 316 312 308 307 305 303 301 299
344 340 335 333 331 330 331 334 336 339 341 341 340 341 340 340 344 345 344 343 341 339 338 338 339 339 341 343 345 347 348 346 344 342 343 344 341 335 330 328 328 329 329 327 329 332 333 333 334 333 330 328 325 321 319 320 320 319 318 319 322 325 325 322 320 319 319 317 315 315 316 318 320 321 321 320 318 316 312 309 307 305 303 301 300
340 339 339 339 339 337 338 341 343 344 341 337 336 337 338 337 339 342 342 341 339 337 336 334 333 333 334 338 342 345 346 345 343 340 340 341 338 330 326 325 325 326 327 327 328 330 331 332 332 329 328 326 323 320 320 320 318 315 314 315 318 321 322 322 319 317 314 313 313 315 316 318 318 319 319 319 319 318 314 311 308 307 306 305 304
341 346 352 353 352 350 346 345 347 347 344 342 340 339 338 338 339 341 341 339 337 336 334 332 331 331 331 331 333 336 338 340 340 337 337 337 333 327 324 324 324 325 325 326 328 330 330 331 330 328 327 325 321 319 320 320 318 315 315 315 316 317 318 318 316 313 313 314 315 316 316 316 316 317 317 317 317 316 312 309 307 305 304 304 303
352 1 0 356 356 356 352 348 350 352 351 350 348 344 341 341 340 337 333 331 332 331 329 328 330 331 329 327 325 324 326 329 330 330 330 331 329 327 325 324 324 324 324 325 326 327 327 327 326 325 323 320 316 314 315 316 317 318 318 317 316 315 314 314 313 313 314 315 315 315 314 313 313 314 314 314 313 312 311 309 307 302 300 299 298
3 5 1 357 359 1 358 353 351 348 345 345 344 340 337 336 334 332 329 328 328 326 322 322 325 326 326 324 322 321 320 319 319 319 321 323 325 326 325 323 323 324 324 324 323 321 320 320 319 317 317 315 312 309 309 312 316 319 319 318 316 314 314 314 314 313 314 314 313 311 310 309 310 311 311 311 310 309 308 307 305 300 297 296 294
12 14 11 8 6 0 354 350 349 346 343 341 338 334 333 331 329 327 327 326 325 323 321 319 320 319 318 318 317 316 315 314 314 315 318 321 322 323 322 321 322 323 322 320 318 315 313 313 313 313 314 313 310 307 308 311 315 318 319 318 316 315 315 315 314 313 314 313 311 309 307 305 306 308 309 309 309 308 306 305 303 299 295 292 290
21 12 2 358 355 350 344 343 343 341 339 338 335 333 332 328 325 324 324 323 323 323 322 321 320 319 316 315 315 314 313 313 314 317 321 322 321 319 318 319 320 320 318 316 313 310 309 310 310 310 310 309 306 306 308 311 314 316 317 317 316 315 314 313 312 312 313 312 310 308 305 303 304 305 306 307 308 308 305 302 300 297 294 291 289
7 358 353 349 346 342 339 337 335 334 333 334 335 334 331 328 327 327 326 324 324 323 321 320 319 317 315 315 316 316 315 315 317 318 319 318 318 318 318 318 319 318 316 313 308 306 307 308 306 304 304 304 304 305 307 310 313 314 314 314 314 314 313 313 312 312 313 313 311 307 304 302 301 302 304 308 310 309 305 301 298 295 294 292 290
14 8 4 358 350 343 336 331 330 331 330 331 333 333 330 329 330 329 327 325 323 320 318 317 318 319 318 317 315 312 311 312 315 316 317 317 318 318 318 318 319 318 315 311 307 305 304 304 302 300 302 303 305 307 309 310 311 311 311 312 312 312 313 314 315 315 315 315 311 307 302 300 300 301 304 308 310 308 303 300 298 296 295 293 291